Flag for France Weather past 2 weeks in Amiens, France

Now
37 °F

Overcast.


Feels Like: 29 °F
Forecast: 30 / 38 °F
Wind: 14 mph from Northwest

Location: Beauvais Airport

Current Time: Feb 1, 2015 at 7:22:17 AM

Latest Report: Feb 1, 2015 at 6:30 AM


Visibility: N/A

Pressure: 29.33 "Hg

Humidity: 81%

Dew point: 32 °F

Location of AmiensLocation

Historic Weather in Amiens — Graph

°F

Amiens temperature yesterday

Maximum temperature yesterday: 39 °F (at 1:30 PM)
Minimum temperature yesterday: 32 °F (at 4:00 AM)
Average temperature yesterday: 35 °F

Past Weeks' High & Low Weather Summary

 TemperatureHumidityPressure
High50 °F (Jan 26, 3:30 PM)100% (Jan 17, 6:00 AM)30.51 "Hg (Jan 17, 6:00 AM)
Low25 °F (Jan 20, 6:00 AM)70% (Jan 28, 8:30 PM)28.85 "Hg (Jan 29, 8:30 PM)
Average36 °F91%29.87 "Hg
* Reported Jan 17 6:00 AM — Feb 1 6:00 AM, Amiens, Weather by CustomWeather, © 2014

Note: Actual official high and low records may vary slightly from our data, if they occured in-between our weather recording intervals... More about our weather records

Advertising

Amiens weather history for previous 24 hours

 ConditionsComfort  
Time TempWeatherWind HumidityBarometerVisibility
6:00 AM
Feb 1
37 °FMostly cloudy.13 mph81%29.33 "HgN/A
5:30 AM36 °FOvercast.13 mph87%29.33 "HgN/A
5:00 AM36 °FOvercast.13 mph87%29.33 "HgN/A
4:30 AM36 °FMostly cloudy.9 mph93%29.33 "HgN/A
4:00 AM36 °FMostly cloudy.9 mph93%29.30 "HgN/A
3:30 AM36 °FMostly cloudy.15 mph93%29.30 "HgN/A
3:00 AM36 °FMostly cloudy.14 mph93%29.30 "HgN/A
2:30 AM36 °FLight rain. Overcast.13 mph93%29.30 "HgN/A
2:00 AM36 °FLight rain. Passing clouds.14 mph93%29.30 "HgN/A
1:30 AM36 °FLight rain. Mostly cloudy.12 mph93%29.27 "HgN/A
1:00 AM34 °FLight rain. Mostly cloudy.14 mph100%29.27 "HgN/A
12:30 AM36 °FLight rain. Low clouds.14 mph93%29.27 "HgN/A
12:00 AM36 °FMostly cloudy.13 mph93%29.24 "HgN/A
11:30 PM
Jan 31
36 °FLight rain. Mostly cloudy.12 mph93%29.24 "HgN/A
11:00 PM34 °FLight rain. Mostly cloudy.12 mph100%29.24 "Hg4 mi
10:30 PM36 °FLight rain. Mostly cloudy.12 mph93%29.21 "Hg5 mi
9:30 PM36 °FLight rain. Mostly cloudy.14 mph93%29.18 "HgN/A
9:00 PM36 °FMostly cloudy.10 mph93%29.18 "HgN/A
8:30 PM36 °FLight rain. Overcast.8 mph93%29.18 "HgN/A
8:00 PM36 °FPartly cloudy.7 mph93%29.18 "HgN/A
7:30 PM34 °FPartly cloudy.6 mph100%29.15 "HgN/A
7:00 PM36 °FPartly cloudy.9 mph93%29.15 "HgN/A
6:30 PM36 °FPassing clouds.10 mph93%29.12 "HgN/A
6:00 PM36 °FMostly cloudy.12 mph93%29.12 "HgN/A
5:30 PM36 °FPartly sunny.12 mph93%29.09 "HgN/A
5:00 PM37 °FLow clouds.10 mph93%29.09 "HgN/A
4:30 PM37 °FLow clouds.12 mph93%29.06 "HgN/A
4:00 PM37 °FLow clouds.12 mph93%29.06 "HgN/A
3:30 PM37 °FLight rain. Partly sunny.8 mph93%29.03 "HgN/A
3:00 PM37 °FLight rain. Low clouds.8 mph93%29.03 "Hg4 mi
2:30 PM37 °FLight rain. Mostly cloudy.10 mph93%29.03 "HgN/A
2:00 PM37 °FLight rain. Mostly cloudy.10 mph93%29.03 "HgN/A
1:30 PM39 °FPartly sunny.12 mph87%29.03 "HgN/A
1:00 PM37 °FPartly sunny.13 mph93%29.03 "HgN/A
12:30 PM37 °FMostly cloudy.12 mph93%29.03 "HgN/A
12:00 PM37 °FMostly cloudy.13 mph93%29.06 "HgN/A
11:30 AM37 °FBroken clouds.12 mph93%29.03 "HgN/A
11:00 AM36 °FLight rain. Broken clouds.14 mph93%29.03 "HgN/A
10:30 AM36 °FBroken clouds.10 mph93%29.03 "HgN/A
10:00 AM36 °FBroken clouds.12 mph87%29.03 "HgN/A
9:30 AM34 °FClear.7 mph93%29.03 "HgN/A
9:00 AM34 °FClear.6 mph93%29.03 "HgN/A
8:30 AM34 °FClear.6 mph93%29.03 "HgN/A
8:00 AM32 °FPassing clouds.3 mph100%29.00 "Hg6 mi
7:30 AM34 °FPartly cloudy.6 mph100%29.00 "Hg4 mi
7:00 AM34 °FLow clouds.10 mph100%29.00 "Hg4 mi
Weather by CustomWeather, © 2014

See weather overviewHow to use our weather pages